World > North America > United States > New York > Boulevard

Boulevard, NY Hourly Weather Conditions

Feedback E-mail the Weather

Quick WX

Boulevard, NY Weather Maps

°F °C°F °C
Boulevard Weather Map
UTC Time: 1/28/2023, 20:52
Your Time:

Boulevard, NY Regional Weather

Expires:202301282100;;399446
ASUS41 KALY 282010
RWRALY

NEW YORK STATE HOURLY WEATHER ROUNDUP
NATIONAL WEATHER SERVICE ALBANY NY
300 PM EST SAT JAN 28 2023

NOTE: "FAIR" INDICATES FEW OR NO CLOUDS BELOW 12,000 FEET WITH NO
SIGNIFICANT WEATHER AND/OR NO OBSTRUCTIONS TO VISIBILITY.


NYZ032-033-038>043-046>054-057>066-NYZ062>081-082-084-282100-
EAST

  
CITY           SKY/WX    TMP DP  RH WIND       PRES   REMARKS
ALBANY         PTSUNNY   43  24  47 NW9       30.17R                  
GLENS FALLS    PTSUNNY   42  24  49 W13       30.17R                  
POUGHKEEPSIE   PTSUNNY   50  22  33 SW10      30.19R                  
MONTGOMERY     CLOUDY    48  22  35 W9G21     30.18R                  
WHITE PLAINS   CLOUDY    49  23  36 W10       30.21R                  
ISLIP          CLOUDY    50  30  46 SW12      30.22R                  
NEW YORK CITY  CLOUDY    52  22  30 W10G20    30.22R                  
CENTRAL PARK   CLOUDY    51  23  33 W7G16     30.24R                  
$$


SKY/WX - Weather  TMP - Temperature  DP - Dew Point  RH - Humidity
WIND - Wind Direction/Speed PRES - Barometric Pressure VSB - Visibility
WCI - Wind Chill Index E13G22 Wind - East Wind 13 mph/Gusts of 22 mph

Trending Headlines

Trending Entertainment Headlines

Boulevard Radar Loop

Use the map search tool if you want to place a location marker on the radar map...

Boulevard Quick Facts

National Two Day Weather Forecast


E-mail the Boulevard Weather Forecast

Voice your opinion or tell us about page issues...